EHI
0 0 0 0 0 0 0 0 0 0 0 0 0 0 0 0 0 0 0 0 0 0 0 0 0 0 0 0 0 0 0 0 0 0 0 1 1 1 0 0 0 1 1
0 0 0 0 0 0 0 0 0 0 0 0 0 0 0 0 0 0 0 0 0 0 0 0 0 0 0 0 0 0 0 0 0 0 0 0 0 0 0 0 0 0 1
0 0 0 0 0 0 0 0 0 0 0 0 0 0 0 0 0 0 0 0 0 0 0 0 0 0 0 0 0 0 0 0 0 0 0 0 0 0 0 0 0 0 0
0 0 0 0 0 0 0 0 0 0 0 0 0 0 0 0 0 0 0 0 0 0 1 1 2 1 0 0 0 0 0 0 0 0 0 0 0 0 0 0 0 0 0
0 0 0 0 0 0 0 0 0 0 0 0 0 0 0 0 0 0 0 0 0 1 2 2 2 1 0 0 1 0 0 0 0 0 0 0 0 0 0 0 0 0 0
0 0 0 0 0 0 0 0 0 0 0 0 0 0 0 0 0 0 0 0 0 1 1 1 1 1 0 0 0 0 0 0 0 0 0 0 0 0 0 0 0 0 0
1 0 0 0 0 0 0 0 0 0 0 0 0 0 0 0 0 0 0 0 0 0 0 0 0 0 0 0 0 0 0 0 0 0 0 0 0 0 0 0 0 0 0
2 1 0 0 0 0 0 0 0 0 0 0 0 0 0 0 0 0 0 0 0 0 0 0 0 0 0 0 0 0 0 0 0 0 0 0 0 0 0 0 0 0 0
2 1 0 0 0 0 0 0 0 0 0 0 0 0 0 0 0 0 0 0 0 0 0 0 1 1 1 1 0 0 0 0 0 0 0 0 0 0 0 0 0 0 0
2 1 0 0 0 0 0 0 0 0 0 0 0 0 0 0 0 0 0 0 0 0 0 0 1 2 2 2 1 0 0 0 0 0 0 0 0 0 0 0 0 0 0
1 1 1 1 1 0 0 0 0 0 0 0 0 0 0 0 0 0 0 0 0 0 0 0 0 1 2 2 1 0 0 0 0 0 0 0 0 0 0 0 0 0 0
1 1 1 1 1 0 0 0 0 0 0 0 0 0 0 0 0 0 0 0 0 0 0 0 0 0 1 1 1 0 0 0 0 0 0 0 0 0 0 0 0 0 0
0 0 0 0 0 0 0 0 0 0 0 0 0 0 0 0 0 0 0 0 0 0 0 0 0 0 0 0 0 0 0 0 0 0 0 0 0 0 0 0 0 0 0
0 0 0 0 0 0 0 0 0 0 0 0 0 0 0 0 0 0 0 0 0 0 0 0 0 0 0 0 0 0 0 0 0 0 0 0 0 0 0 0 0 0 0
1 1 0 0 0 0 1 1 0 0 0 0 0 0 0 0 0 0 0 0 1 0 0 0 0 0 0 0 0 0 0 0 0 0 0 0 0 0 0 0 0 0 0
2 2 1 1 0 0 1 2 1 1 1 0 0 0 0 0 0 0 0 0 0 0 0 0 0 0 0 0 0 0 0 0 0 0 0 0 0 0 0 0 0 0 0
2 2 2 2 1 1 1 2 2 2 1 0 0 0 0 0 0 0 0 0 0 0 0 0 0 0 0 0 0 0 0 0 0 0 0 0 0 0 0 0 0 0 0
1 1 1 2 2 2 1 2 3 2 1 0 0 0 0 0 0 0 0 0 0 0 0 0 0 0 0 0 0 0 0 0 0 0 0 0 0 0 0 0 0 0 0
0 0 0 1 2 2 1 2 2 1 0 0 0 0 0 0 0 1 0 0 0 0 0 0 0 0 0 0 0 0 0 0 0 0 0 0 0 0 0 0 0 0 0
0 0 0 0 1 1 0 1 1 0 0 0 0 0 0 0 0 0 0 0 0 0 0 0 0 0 0 0 0 0 0 0 0 0 0 0 0 0 0 0 0 0 0
0 0 0 0 0 0 0 0 0 0 0 0 0 0 0 0 0 0 0 0 0 0 0 0 0 0 0 0 0 0 0 0 0 0 0 0 0 0 0 0 0 0 0
0 0 0 0 0 0 0 0 0 0 0 0 0 0 0 0 0 0 0 0 0 0 0 0 0 0 0 0 0 0 0 0 0 0 0 0 0 0 0 0 0 0 0
0 0 0 0 0 0 0 0 0 1 0 0 0 0 0 0 0 0 0 0 0 0 0 0 0 0 0 0 0 0 0 0 0 0 0 0 0 0 0 0 0 0 0
0 0 0 0 0 0 0 0 0 0 0 0 0 0 0 0 0 0 0 0 0 0 0 0 0 0 0 0 0 0 0 0 0 0 0 0 0 0 0 0 0 0 0
0 0 0 0 0 0 0 0 0 0 0 0 0 0 0 0 0 0 0 0 0 0 0 0 0 0 0 0 0 0 0 0 0 0 0 0 0 0 0 0 0 0 0
0 0 0 0 0 0 0 0 0 0 0 0 0 0 0 0 0 0 0 0 0 0 0 0 0 0 0 0 0 0 0 0 0 0 0 0 0 0 0 0 0 0 0
Wind_Speed
3 2 2 2 3 3 2 2 3 4 3 4 4 4 5 5 5 4 5 10 10 10 8 8 7 7 7 7 8 8 8 9 9 9 10 10 10 10 9 9 8 8 9
2 2 3 3 3 2 2 2 3 3 3 3 4 4 4 4 4 4 4 6 9 10 9 8 8 7 7 7 7 8 8 9 10 10 9 10 10 10 9 8 8 9 9
2 2 2 2 2 2 3 2 3 2 3 3 3 4 3 4 3 4 4 3 5 8 9 8 8 8 7 7 7 7 8 9 9 9 9 9 10 9 9 9 10 10 10
2 2 2 2 2 2 2 2 2 2 2 2 3 2 2 3 4 4 3 3 3 3 7 8 8 7 7 7 7 7 8 8 8 8 8 9 9 9 9 10 10 10 10
2 2 1 1 2 2 2 2 2 2 2 2 2 2 2 3 3 3 4 4 4 3 3 6 8 8 7 7 7 8 8 8 8 8 8 8 9 9 10 10 10 10 9
1 2 1 2 2 1 2 2 2 2 2 2 2 3 3 2 2 3 3 3 3 4 3 3 3 6 8 7 7 7 7 7 8 8 8 8 9 9 9 9 9 9 9
1 1 1 1 1 1 2 2 2 2 1 1 1 2 2 3 3 2 2 2 3 3 3 3 2 2 4 7 7 7 7 7 7 8 8 8 9 9 9 9 9 8 8
1 1 1 1 1 1 2 2 2 1 1 1 1 1 2 3 2 2 2 2 2 3 3 3 3 3 3 3 7 9 7 7 7 7 8 8 8 8 8 8 8 7 8
0 1 1 1 1 1 1 1 2 2 1 1 1 1 1 1 2 2 2 2 2 2 3 3 4 4 4 3 4 7 7 6 6 6 7 7 7 8 8 8 8 8 8
0 0 0 1 1 1 1 1 1 2 1 1 0 1 2 1 1 1 2 2 2 2 3 2 3 3 3 3 5 7 7 6 6 5 6 6 7 7 7 7 7 7 7
0 0 1 1 1 1 2 2 2 2 1 2 1 1 0 1 2 1 1 1 1 1 2 2 2 2 3 3 3 6 7 6 5 5 5 5 6 6 7 7 7 6 6
1 1 2 2 2 2 2 2 2 2 2 2 2 1 1 1 1 1 1 1 1 1 1 1 1 2 2 3 5 7 6 5 5 5 4 5 5 5 6 6 6 6 6
1 1 2 2 2 2 1 2 2 2 2 2 2 1 1 1 1 1 1 1 1 1 1 1 1 1 1 2 3 4 5 4 4 4 4 4 4 4 5 5 5 5 5
1 2 2 2 2 2 2 2 2 2 2 2 2 2 2 1 2 2 1 1 1 1 2 2 1 1 1 1 3 1 4 5 4 4 4 4 4 4 4 4 4 4 4
2 2 2 2 2 2 2 3 2 2 2 2 2 3 2 1 2 2 2 2 2 2 1 2 1 1 1 1 3 2 3 6 4 4 4 4 4 4 4 4 4 4 3
2 2 2 2 3 3 3 2 2 2 3 2 2 3 3 2 2 2 2 2 2 2 1 1 1 1 2 1 2 1 3 6 5 4 3 3 3 3 3 4 4 3 3
2 2 2 3 3 3 3 3 3 3 3 3 3 3 3 3 2 2 2 2 2 2 2 1 1 1 2 2 2 1 2 3 4 5 3 3 2 2 2 2 3 3 3
2 2 2 3 3 3 3 4 4 4 4 4 4 4 4 3 4 3 3 3 3 3 3 2 2 1 2 2 2 2 1 1 2 5 4 2 2 1 2 2 2 2 2
2 2 3 3 3 3 4 4 4 5 4 4 4 4 4 4 5 4 4 3 3 3 3 3 2 2 1 2 2 2 2 2 2 4 4 3 2 2 2 3 2 2 1
2 2 3 3 3 3 4 4 4 5 5 4 4 4 4 4 5 4 4 4 3 3 3 3 3 3 2 2 2 2 2 2 2 2 2 2 3 4 3 4 3 2 2
2 2 2 2 2 2 3 4 4 5 5 5 4 4 4 3 2 3 3 4 4 4 3 3 3 3 3 3 3 3 3 3 3 3 2 3 3 4 4 5 6 4 4
2 2 2 2 1 1 2 3 4 4 4 5 4 4 4 4 3 3 3 4 4 5 5 4 4 5 5 4 3 4 3 3 3 3 3 3 3 3 3 3 4 6 6
2 2 2 1 2 1 1 1 3 3 3 3 4 4 3 3 4 4 5 5 6 6 5 5 6 6 5 5 5 6 5 5 3 2 3 4 4 4 3 3 5 6 6
1 2 2 2 2 1 0 1 2 3 3 3 3 4 4 4 4 4 4 5 5 6 6 6 6 5 5 4 6 6 6 5 3 2 4 4 3 4 3 3 6 8 7
2 1 2 2 2 1 1 0 2 3 3 3 3 3 4 4 2 4 5 6 5 5 4 4 4 3 2 2 3 4 4 5 4 4 4 3 3 3 3 4 4 8 8
1 2 2 2 2 2 1 1 2 2 3 3 3 3 3 4 3 4 6 6 6 5 5 5 5 5 5 5 6 6 5 5 4 3 4 4 3 2 3 3 3 4 6
Wind_Direction
68 82 88 79 76 77 85 83 88 85 78 73 68 64 65 62 66 63 71 62 49 48 52 58 65 73 76 76 74 75 76 75 76 81 79 89 95 96 96 95 94 93 90
73 75 80 77 75 76 74 79 83 88 84 80 76 71 63 59 62 65 68 79 66 51 49 53 58 65 74 77 78 78 79 81 82 86 82 86 91 93 94 95 92 89 86
76 75 74 79 80 87 89 78 82 80 87 89 82 67 63 55 57 64 65 57 80 75 57 53 56 60 66 75 82 86 84 85 84 84 85 88 92 93 91 90 90 87 84
76 77 76 83 85 91 98 92 86 87 81 76 75 68 63 64 55 53 59 60 47 62 77 61 56 58 64 73 80 85 87 89 90 90 91 92 93 92 90 90 90 85 83
86 100 84 92 100 97 94 97 86 77 83 74 69 65 57 56 53 48 51 51 54 47 66 90 75 60 62 70 76 81 85 89 93 95 94 95 94 91 89 89 87 84 82
91 108 124 125 118 120 107 102 98 81 76 77 74 69 64 66 57 48 41 44 44 46 49 60 88 85 70 64 70 81 88 92 97 100 97 96 93 90 87 88 86 85 81
108 116 139 125 129 133 136 129 126 117 110 99 113 120 107 81 71 64 50 46 54 45 53 52 54 66 95 87 62 65 79 89 92 96 95 96 94 91 89 89 88 86 83
124 130 158 145 154 150 154 145 154 169 146 181 223 208 163 151 108 68 64 58 49 54 49 54 65 70 60 77 78 65 61 77 86 96 94 93 93 93 89 89 90 89 85
129 171 166 163 159 181 169 181 190 205 202 201 285 288 255 153 126 119 79 70 58 55 56 46 58 72 79 79 86 79 63 70 87 98 100 102 99 96 93 89 88 88 86
17 329 202 203 205 192 191 206 202 234 232 215 193 311 326 13 239 156 145 98 67 56 48 42 40 57 68 84 84 70 68 68 83 103 106 106 104 102 97 92 92 89 86
147 222 243 228 230 214 207 210 218 232 233 245 222 199 219 231 256 230 155 137 121 84 61 46 42 49 56 71 78 76 73 65 71 89 105 107 105 103 99 95 91 89 87
177 183 238 229 231 226 212 211 219 223 230 236 239 227 227 228 237 238 201 185 141 94 92 64 42 55 56 66 74 74 72 66 68 73 85 99 102 102 103 99 93 89 91
228 228 235 238 235 234 226 226 226 227 225 229 235 244 248 263 271 262 238 210 169 139 129 137 87 77 79 88 91 89 90 77 79 78 76 83 92 98 101 99 96 92 91
258 253 235 240 243 240 230 225 234 231 240 236 232 230 229 230 239 241 236 224 206 189 184 154 129 115 96 114 86 150 114 99 88 85 78 78 81 82 88 94 93 90 88
264 253 241 231 226 230 231 220 226 223 231 238 236 231 231 219 236 233 233 238 241 225 207 156 163 147 142 106 117 172 137 108 105 97 87 82 82 81 80 82 79 79 78
251 252 245 231 222 220 222 225 227 235 227 219 236 235 229 217 213 222 227 238 249 249 242 166 179 165 135 136 116 164 121 124 129 115 101 92 82 79 82 79 76 76 75
243 239 244 242 235 231 225 220 228 226 232 222 217 219 222 225 215 217 215 220 229 222 219 215 185 164 157 161 136 169 159 160 140 136 121 110 99 95 98 90 86 78 72
258 246 241 242 236 235 231 227 230 230 236 236 231 225 217 212 221 221 220 218 218 215 207 198 180 175 189 175 172 182 178 161 157 133 141 136 128 114 127 122 108 92 79
268 254 242 243 239 234 230 229 232 234 236 237 238 239 228 218 218 213 220 219 218 213 203 197 180 158 191 186 193 200 195 184 189 153 164 177 172 170 172 163 151 133 117
268 262 253 249 242 239 236 237 237 238 234 233 236 242 239 234 232 220 215 215 216 211 205 199 190 178 181 188 204 202 200 194 210 191 182 203 193 200 200 194 190 186 180
267 259 256 257 251 241 244 245 239 240 235 230 233 236 234 241 273 241 227 218 213 211 205 206 203 196 188 187 204 207 211 198 209 206 207 207 205 210 203 203 207 209 211
274 255 250 251 261 270 336 290 263 244 241 236 234 233 219 206 206 213 220 226 232 226 217 214 218 214 212 208 210 212 208 208 215 195 225 228 220 225 222 220 192 200 213
278 274 268 270 270 303 349 282 277 262 245 247 245 237 225 213 210 217 207 210 219 227 237 236 227 227 224 213 211 216 218 221 231 188 216 232 221 230 225 210 184 198 211
262 262 265 258 256 258 86 266 277 255 250 251 252 247 235 225 219 232 225 224 228 220 221 232 240 239 236 227 219 226 225 226 237 201 212 244 227 234 232 220 188 200 212
272 272 264 248 244 235 103 190 271 259 254 251 249 247 247 242 224 236 231 225 228 227 206 223 263 263 265 241 217 215 211 212 225 212 205 239 243 244 244 235 197 196 212
280 268 254 245 251 253 138 209 272 258 261 263 259 248 240 259 240 229 230 225 228 229 222 210 219 220 220 203 204 220 218 223 228 224 195 221 233 237 244 229 221 211 214